When you browse on this site, cookies collect data to enhance your experience and personalize the content and advertising you see.
Visit our Privacy Policy to learn more. By continuing to use the site, you agree to this use of cookies and data.
  • In Netherlands
  • List of Countries
  • For 7 days
  • Water Temperature
  • Weather Map
  • Weather Widgets
  • user-avatar
    Login

    Hourly Weather Chichester

    Today, 19 September, Thursday

    Time Temperature Precipitation Wind Pressure Humidity
    00:00 +11°C° 0 mm 4 mps 771 mmHg 79%
    01:00 +11°C° 0 mm 3 mps 771 mmHg 80%
    02:00 +10°C° 0 mm 3 mps 771 mmHg 82%
    03:00 +10°C° 0 mm 3 mps 770 mmHg 84%
    04:00 +10°C° 0 mm 3 mps 771 mmHg 85%
    05:00 +10°C° 0 mm 3 mps 771 mmHg 85%
    06:00 +10°C° 0 mm 3 mps 771 mmHg 86%
    07:00 +12°C° 0 mm 3 mps 771 mmHg 79%
    08:00 +13°C° 0 mm 3 mps 771 mmHg 72%
    09:00 +16°C° 0 mm 3 mps 771 mmHg 65%
    10:00 +17°C° 0 mm 3 mps 771 mmHg 62%
    11:00 +18°C° 0 mm 3 mps 771 mmHg 58%
    12:00 +20°C° 0 mm 4 mps 771 mmHg 55%
    13:00 +20°C° 0 mm 4 mps 771 mmHg 55%
    14:00 +20°C° 0 mm 4 mps 771 mmHg 55%
    15:00 +20°C° 0 mm 4 mps 770 mmHg 56%
    16:00 +19°C° 0 mm 4 mps 770 mmHg 62%
    17:00 +17°C° 0 mm 4 mps 770 mmHg 69%
    18:00 +15°C° 0 mm 4 mps 770 mmHg 76%
    19:00 +14°C° 0 mm 4 mps 770 mmHg 78%
    20:00 +13°C° 0 mm 4 mps 770 mmHg 80%
    21:00 +12°C° 0 mm 5 mps 770 mmHg 82%
    22:00 +12°C° 0 mm 5 mps 770 mmHg 84%
    23:00 +12°C° 0 mm 5 mps 770 mmHg 87%

    Tomorrow, 20 September, Friday

    Time Temperature Precipitation Wind Pressure Humidity
    00:00 +10°C° 0 mm 5 mps 769 mmHg 89%
    01:00 +10°C° 0 mm 5 mps 769 mmHg 89%
    02:00 +10°C° 0 mm 5 mps 769 mmHg 89%
    03:00 +10°C° 0 mm 5 mps 768 mmHg 89%
    04:00 +10°C° 0 mm 5 mps 768 mmHg 88%
    05:00 +10°C° 0 mm 5 mps 768 mmHg 87%
    06:00 +10°C° 0 mm 6 mps 767 mmHg 85%
    07:00 +11°C° 0 mm 6 mps 767 mmHg 75%
    08:00 +14°C° 0 mm 7 mps 767 mmHg 66%
    09:00 +15°C° 0 mm 8 mps 767 mmHg 56%
    10:00 +17°C° 0 mm 8 mps 766 mmHg 51%
    11:00 +18°C° 0 mm 8 mps 766 mmHg 46%
    12:00 +19°C° 0 mm 9 mps 765 mmHg 42%
    13:00 +19°C° 0 mm 9 mps 764 mmHg 42%
    14:00 +20°C° 0 mm 8 mps 764 mmHg 42%
    15:00 +20°C° 0 mm 8 mps 763 mmHg 43%
    16:00 +18°C° 0 mm 8 mps 763 mmHg 46%
    17:00 +17°C° 0 mm 8 mps 762 mmHg 50%
    18:00 +16°C° 0 mm 8 mps 761 mmHg 54%
    19:00 +15°C° 0 mm 8 mps 761 mmHg 58%
    20:00 +15°C° 0 mm 8 mps 761 mmHg 62%
    21:00 +13°C° 0 mm 8 mps 761 mmHg 66%
    22:00 +13°C° 0 mm 8 mps 760 mmHg 67%
    23:00 +14°C° 0 mm 7 mps 760 mmHg 68%

    Day after tomorrow, 21 September, Saturday

    Time Temperature Precipitation Wind Pressure Humidity
    00:00 +14°C° 0 mm 7 mps 759 mmHg 69%
    01:00 +14°C° 0 mm 7 mps 759 mmHg 70%
    02:00 +12°C° 0 mm 7 mps 758 mmHg 72%
    03:00 +12°C° 0 mm 7 mps 758 mmHg 73%
    04:00 +12°C° 0 mm 7 mps 757 mmHg 75%
    05:00 +11°C° 0 mm 7 mps 757 mmHg 77%
    06:00 +11°C° 0 mm 7 mps 756 mmHg 79%
    07:00 +14°C° 0 mm 7 mps 756 mmHg 75%
    08:00 +15°C° 0 mm 8 mps 756 mmHg 72%
    09:00 +17°C° 0 mm 8 mps 756 mmHg 68%
    10:00 +18°C° 0 mm 7 mps 755 mmHg 66%
    11:00 +20°C° 0 mm 7 mps 755 mmHg 65%
    12:00 +21°C° 0 mm 7 mps 755 mmHg 64%
    13:00 +21°C° 0 mm 7 mps 754 mmHg 64%
    14:00 +22°C° 0 mm 6 mps 753 mmHg 63%
    15:00 +22°C° 0 mm 6 mps 753 mmHg 63%
    16:00 +22°C° 0.3 mm 6 mps 753 mmHg 67%
    17:00 +21°C° 0.3 mm 6 mps 752 mmHg 71%
    18:00 +20°C° 0.3 mm 5 mps 752 mmHg 75%
    19:00 +20°C° 0.5 mm 5 mps 752 mmHg 78%
    20:00 +19°C° 0.5 mm 5 mps 752 mmHg 81%
    21:00 +19°C° 0.5 mm 5 mps 751 mmHg 83%
    22:00 +19°C° 0.6 mm 5 mps 751 mmHg 84%
    23:00 +19°C° 0.6 mm 5 mps 751 mmHg 84%

    22 September, Sunday

    Time Temperature Precipitation Wind Pressure Humidity
    00:00 +19°C° 0.6 mm 5 mps 750 mmHg 84%
    01:00 +19°C° 0 mm 5 mps 750 mmHg 86%
    02:00 +19°C° 0 mm 4 mps 750 mmHg 88%
    03:00 +19°C° 0 mm 4 mps 749 mmHg 89%
    04:00 +18°C° 0.2 mm 4 mps 749 mmHg 91%
    05:00 +17°C° 0.2 mm 5 mps 749 mmHg 92%
    06:00 +17°C° 0.2 mm 5 mps 749 mmHg 93%
    07:00 +17°C° 1.3 mm 5 mps 750 mmHg 94%
    08:00 +16°C° 1.3 mm 5 mps 750 mmHg 94%
    09:00 +16°C° 1.3 mm 5 mps 750 mmHg 94%
    10:00 +17°C° 0.5 mm 5 mps 751 mmHg 88%
    11:00 +17°C° 0.5 mm 6 mps 751 mmHg 82%
    12:00 +19°C° 0.5 mm 6 mps 751 mmHg 76%
    13:00 +19°C° 0.1 mm 6 mps 751 mmHg 74%
    14:00 +19°C° 0.1 mm 6 mps 751 mmHg 72%
    15:00 +19°C° 0.1 mm 6 mps 751 mmHg 70%
    16:00 +19°C° 0.1 mm 6 mps 751 mmHg 73%
    17:00 +17°C° 0.1 mm 6 mps 751 mmHg 77%
    18:00 +16°C° 0.1 mm 6 mps 751 mmHg 81%
    19:00 +16°C° 0 mm 7 mps 752 mmHg 83%
    20:00 +15°C° 0 mm 8 mps 752 mmHg 84%
    21:00 +15°C° 0 mm 9 mps 753 mmHg 86%
    22:00 +15°C° 0.1 mm 9 mps 753 mmHg 86%
    23:00 +13°C° 0.1 mm 9 mps 753 mmHg 86%

    23 September, Monday

    Time Temperature Precipitation Wind Pressure Humidity
    00:00 +13°C° 0.1 mm 9 mps 754 mmHg 86%
    01:00 +13°C° 0 mm 8 mps 754 mmHg 85%
    02:00 +13°C° 0 mm 8 mps 754 mmHg 84%
    03:00 +13°C° 0 mm 8 mps 755 mmHg 83%
    04:00 +12°C° 0 mm 7 mps 755 mmHg 84%
    05:00 +12°C° 0 mm 7 mps 755 mmHg 85%
    06:00 +13°C° 0 mm 6 mps 755 mmHg 86%
    07:00 +14°C° 0 mm 6 mps 756 mmHg 81%
    08:00 +15°C° 0 mm 6 mps 756 mmHg 75%
    09:00 +16°C° 0 mm 6 mps 756 mmHg 70%
    10:00 +17°C° 0.1 mm 6 mps 756 mmHg 71%
    11:00 +17°C° 0.1 mm 7 mps 756 mmHg 71%
    12:00 +17°C° 0.1 mm 7 mps 756 mmHg 72%
    13:00 +17°C° 0.1 mm 7 mps 756 mmHg 73%
    14:00 +17°C° 0.1 mm 7 mps 755 mmHg 74%
    15:00 +17°C° 0.1 mm 7 mps 755 mmHg 76%
    16:00 +16°C° 0.7 mm 7 mps 755 mmHg 82%
    17:00 +16°C° 0.7 mm 8 mps 755 mmHg 87%
    18:00 +15°C° 0.7 mm 8 mps 754 mmHg 93%
    19:00 +16°C° 0.3 mm 7 mps 754 mmHg 94%
    20:00 +16°C° 0.3 mm 7 mps 754 mmHg 95%
    21:00 +17°C° 0.3 mm 6 mps 755 mmHg 96%
    22:00 +17°C° 0 mm 6 mps 755 mmHg 95%
    23:00 +17°C° 0 mm 6 mps 754 mmHg 95%

    24 September, Tuesday

    Time Temperature Precipitation Wind Pressure Humidity
    00:00 +17°C° 0 mm 6 mps 754 mmHg 94%
    01:00 +16°C° 0 mm 6 mps 754 mmHg 94%
    02:00 +16°C° 0 mm 5 mps 754 mmHg 94%
    03:00 +16°C° 0 mm 5 mps 754 mmHg 95%
    04:00 +16°C° 0.1 mm 5 mps 754 mmHg 95%
    05:00 +16°C° 0.1 mm 5 mps 754 mmHg 95%
    06:00 +17°C° 0.1 mm 5 mps 753 mmHg 95%
    07:00 +17°C° 1.5 mm 7 mps 753 mmHg 95%
    08:00 +17°C° 1.5 mm 8 mps 752 mmHg 94%
    09:00 +17°C° 1.5 mm 10 mps 751 mmHg 93%
    10:00 +18°C° 1.3 mm 11 mps 751 mmHg 92%
    11:00 +18°C° 1.3 mm 12 mps 750 mmHg 90%
    12:00 +18°C° 1.3 mm 14 mps 749 mmHg 89%
    13:00 +18°C° 0.1 mm 13 mps 749 mmHg 84%
    14:00 +18°C° 0.1 mm 12 mps 749 mmHg 80%
    15:00 +18°C° 0.1 mm 12 mps 749 mmHg 75%
    16:00 +17°C° 0.1 mm 11 mps 750 mmHg 78%
    17:00 +17°C° 0.1 mm 10 mps 750 mmHg 80%
    18:00 +16°C° 0.1 mm 8 mps 750 mmHg 83%
    19:00 +16°C° 0 mm 8 mps 750 mmHg 83%
    20:00 +16°C° 0 mm 8 mps 750 mmHg 84%
    21:00 +15°C° 0 mm 8 mps 751 mmHg 85%
    22:00 +16°C° 0.3 mm 9 mps 750 mmHg 86%
    23:00 +16°C° 0.3 mm 9 mps 750 mmHg 86%
    Show more